Voltar ao catálogo

KUIPER-00018

AtivoComunicaçõesLEO
NORAD 63733·PAYLOAD·🇺🇸 United States

Lançado Apr 28, 2025 de Cape Canaveral Space Force Station

Loading…

Próximas Passagens (próximas 24 horas)

TLE

AtualizadoSource: CelesTrak SupGP

Época: Sep 15, 2026, 05:29 UTC

1 63733C 25088K   26258.22902778  .00001334  00000+0  17461-3 0  2585
2 63733  51.9034 342.4756 0000328  83.7170  11.0319 14.79921498    16

Acompanhe KUIPER-00018 em tempo real com AllMySat

Download on the App Store